Date,TemperatureHighF,TemperatureAvgF,TemperatureLowF,DewpointHighF,DewpointAvgF,DewpointLowF,HumidityHigh,HumidityAvg,HumidityLow,PressureMaxIn,PressureMinIn,WindSpeedMaxMPH,WindSpeedAvgMPH,GustSpeedMaxMPH,PrecipitationSumIn
2013-1-1,72,49,37,32,22,9,74,40,18,30.29,30.17,7,1,10,5.76
2013-1-2,66,54,42,17,12,7,30,19,14,30.23,30.04,8,2,12,0.00
2013-1-3,68,55,43,17,12,4,23,18,12,30.24,30.08,11,2,16,0.00
2013-1-4,63,47,34,17,8,-1,36,21,15,30.32,30.19,9,1,60,5.76
2013-1-5,64,46,33,19,13,8,46,28,15,30.36,30.19,6,1,8,0.00
2013-1-6,63,50,36,39,23,6,62,37,18,30.20,29.96,30,8,34,0.00
2013-1-7,69,57,44,41,23,11,76,34,12,30.04,29.93,17,3,21,0.00
2013-1-8,79,62,47,34,23,12,36,23,12,30.10,29.96,9,3,11,0.00
2013-1-9,73,60,49,38,31,26,51,34,18,30.17,29.91,7,1,9,0.00
2013-1-10,64,55,48,44,30,10,69,41,18,30.00,29.74,35,8,42,0.00
2013-1-11,58,49,40,22,13,6,37,24,17,30.14,30.00,22,4,27,0.00
2013-1-12,57,45,34,24,16,6,53,32,17,30.18,30.03,11,2,15,0.00
2013-1-13,55,43,32,15,8,-2,44,24,17,30.22,30.04,8,2,11,5.76
2013-1-14,54,44,33,11,5,-4,22,19,17,30.38,30.22,11,4,17,0.00
2013-1-15,62,47,37,21,9,3,32,21,17,30.48,30.34,13,4,18,0.00
2013-1-16,69,51,37,28,15,4,37,25,14,30.44,30.21,11,3,14,0.00
2013-1-17,74,60,47,22,14,10,23,17,10,30.29,30.13,6,1,9,0.00
2013-1-18,75,57,42,24,15,2,38,20,10,30.25,30.08,5,1,8,0.00
2013-1-19,76,59,46,24,14,10,25,18,10,30.26,30.09,7,1,8,0.00
2013-1-20,78,57,41,23,12,3,23,17,10,30.19,30.01,8,1,9,0.00
2013-1-21,79,62,48,22,15,9,21,16,10,30.14,30.01,8,2,10,0.00
2013-1-22,77,58,43,23,13,4,24,17,10,30.18,30.03,4,1,7,0.00
2013-1-23,76,63,50,34,20,12,31,20,10,30.14,30.01,4,1,7,0.00
2013-1-24,71,64,58,49,39,23,71,42,21,30.21,30.04,18,2,23,0.00
2013-1-25,61,58,56,59,56,49,99,92,72,30.19,29.96,4,0,6,0.41
2013-1-26,70,61,56,64,58,56,99,89,64,29.97,29.83,8,1,10,0.04
2013-1-27,66,58,51,59,47,28,99,69,33,30.15,29.84,26,4,32,6.25
2013-1-28,62,53,46,39,27,15,72,39,19,30.12,29.93,28,8,34,0.00
2013-1-29,65,55,45,41,30,21,73,40,19,30.24,30.03,21,5,28,0.00
2013-1-30,69,54,42,42,38,31,82,58,26,30.36,30.20,6,1,8,0.00
2013-1-31,76,57,43,44,40,35,84,57,23,30.27,30.07,7,1,10,0.00
2013-2-1,75,60,47,43,38,31,73,48,22,30.21,30.08,10,1,12,0.00
2013-2-2,77,63,51,47,40,30,70,46,21,30.23,30.09,4,1,7,0.00
2013-2-3,76,66,57,47,43,39,62,44,29,30.12,29.94,14,2,21,0.00
2013-2-4,81,66,52,44,36,19,63,39,10,30.04,29.87,13,2,17,0.00
2013-2-5,79,67,57,44,37,25,55,36,17,29.98,29.83,22,5,27,0.00
2013-2-6,74,63,55,45,41,33,68,47,26,30.03,29.84,32,14,37,0.00
2013-2-7,75,62,53,44,37,23,64,44,16,30.06,29.83,33,8,42,0.00
2013-2-8,58,50,42,40,35,15,82,59,22,29.93,29.83,32,9,42,0.00
2013-2-9,60,50,42,37,31,21,80,50,22,30.03,29.85,24,10,31,0.00
2013-2-10,62,53,46,36,31,24,58,44,25,30.04,29.92,24,13,28,0.00
2013-2-11,61,53,42,38,22,4,68,36,16,30.25,30.02,17,4,22,0.00
2013-2-12,69,52,38,26,16,7,43,26,12,30.35,30.17,6,1,9,6.25
2013-2-13,77,57,42,31,23,12,49,31,11,30.26,30.05,7,1,11,0.00
2013-2-14,78,62,47,34,25,14,54,28,11,30.20,30.04,8,2,14,0.00
2013-2-15,79,66,54,54,19,12,97,17,10,30.27,30.13,8,2,11,0.00
2013-2-16,79,62,49,25,17,11,30,18,10,30.24,29.96,8,1,10,0.00
2013-2-17,79,64,48,33,20,11,33,20,10,29.96,29.77,28,9,33,0.00
2013-2-18,76,64,54,43,31,17,65,31,12,29.99,29.82,23,6,29,0.00
2013-2-19,63,55,49,43,35,29,65,48,30,29.85,29.63,31,16,43,0.00
2013-2-20,60,51,42,42,32,25,96,53,29,29.91,29.63,30,11,36,0.07
2013-2-21,65,53,44,34,29,19,59,41,19,30.08,29.91,26,8,30,0.00
2013-2-22,70,55,41,34,24,13,65,36,11,30.18,30.04,10,1,15,0.00
2013-2-23,73,57,42,37,30,14,71,40,14,30.14,29.73,24,4,30,0.00
2013-2-24,66,57,46,16,13,5,22,17,13,30.21,29.99,19,4,26,0.00
2013-2-25,70,55,40,20,12,4,29,19,11,30.26,30.00,12,1,15,0.00
2013-2-26,72,58,43,26,16,10,46,22,10,30.18,29.99,10,1,14,0.00
2013-2-27,73,58,42,17,12,7,31,17,10,30.32,30.16,8,1,12,6.43
2013-2-28,80,61,45,22,14,4,22,16,10,30.36,30.21,5,0,8,0.00
2013-3-1,85,65,48,30,18,11,30,18,10,30.37,30.14,8,1,11,0.00
2013-3-2,84,66,51,36,26,20,41,23,11,30.25,30.01,9,1,11,0.00
2013-3-3,81,71,61,36,26,13,33,20,10,30.03,29.75,31,5,39,0.00
2013-3-4,79,66,55,45,41,32,68,42,22,30.02,29.85,32,13,38,0.00
2013-3-5,80,66,56,46,41,-100,61,43,1,30.05,29.86,33,7,40,6.43
2013-3-6,75,64,55,44,37,24,59,40,18,30.01,29.83,34,18,47,0.00
2013-3-7,68,59,51,44,40,34,62,49,38,29.91,29.81,27,10,32,0.00
2013-3-8,61,53,46,44,37,31,83,56,33,29.94,29.75,34,8,42,0.06
2013-3-9,68,57,45,43,39,35,77,53,30,30.13,29.93,26,11,32,0.00
2013-3-10,80,65,50,41,24,12,62,27,10,30.24,30.05,22,4,27,0.00
2013-3-11,85,66,48,35,24,15,42,24,10,30.18,29.93,10,1,13,0.00
2013-3-12,90,71,53,36,28,15,42,23,10,30.06,29.91,8,1,11,0.00
2013-3-13,95,75,56,38,29,20,38,21,10,30.11,29.91,7,1,10,0.00
2013-3-14,97,79,61,40,31,23,32,19,10,30.06,29.86,11,2,14,0.00
2013-3-15,95,82,69,45,30,18,30,16,10,29.95,29.74,27,5,31,0.00
2013-3-16,90,80,71,43,26,15,36,15,10,29.78,29.65,118,21,118,6.49
2013-3-17,90,75,64,46,38,24,45,28,10,29.86,29.70,36,18,44,0.00
2013-3-18,88,73,64,47,42,28,52,36,12,29.92,29.79,37,17,42,0.00
2013-3-19,85,72,61,49,43,36,61,38,19,29.96,29.85,34,19,41,0.00
2013-3-20,87,74,68,49,40,26,49,31,14,29.96,29.78,33,14,40,0.00
2013-3-21,87,73,63,49,42,30,51,35,14,29.79,29.62,35,20,41,0.00
2013-3-22,88,71,58,48,38,19,62,36,10,29.78,29.62,35,16,45,0.00
2013-3-23,84,70,58,48,25,12,53,22,10,29.98,29.75,31,6,36,0.00
2013-3-24,85,68,51,27,20,12,35,18,10,30.00,29.80,8,1,11,0.00
2013-3-25,86,70,53,38,23,14,32,19,10,29.95,29.78,11,2,17,0.00
2013-3-26,89,76,63,38,28,15,35,18,10,29.96,29.68,30,9,36,0.00
2013-3-27,86,73,65,45,35,24,41,26,15,29.87,29.76,34,18,40,0.00
2013-3-28,87,76,65,43,37,28,44,26,13,29.97,29.85,25,8,32,0.00
2013-3-29,88,76,65,49,40,32,46,29,15,30.02,29.90,22,5,31,0.00
2013-3-30,89,78,69,50,41,34,47,28,15,29.99,29.83,30,15,36,0.00
2013-3-31,83,72,64,46,39,29,44,31,15,29.96,29.83,32,19,42,0.00
2013-4-1,77,67,60,46,40,32,60,38,21,29.99,29.86,37,22,46,0.00
2013-4-2,87,73,60,46,41,25,59,35,12,29.98,29.81,35,15,43,0.00
2013-4-3,93,79,64,48,38,25,50,27,10,29.99,29.83,23,8,29,0.00
2013-4-4,91,79,70,44,35,21,37,22,10,29.94,29.80,29,14,36,0.00
2013-4-5,82,72,65,51,43,17,56,37,12,29.94,29.78,36,20,46,0.00
2013-4-6,86,72,63,52,47,40,61,43,22,29.92,29.74,37,22,45,0.00
2013-4-7,88,74,62,51,47,40,62,41,20,29.83,29.60,36,17,44,0.00
2013-4-8,76,66,60,50,36,23,62,35,17,29.68,29.39,38,17,48,0.00
2013-4-9,81,68,56,34,22,13,42,20,10,29.94,29.67,32,10,36,0.00
2013-4-10,89,74,59,26,20,12,23,14,10,30.05,29.83,26,7,30,0.00
2013-4-11,90,74,59,44,28,13,40,20,10,29.91,29.58,28,7,36,6.49
2013-4-12,92,76,61,47,39,24,60,30,10,29.75,29.62,20,6,25,0.00
2013-4-13,91,78,68,46,39,25,41,26,10,29.76,29.56,34,10,41,0.00
2013-4-14,73,66,60,47,44,40,57,46,33,29.69,29.52,47,28,62,0.00
2013-4-15,75,68,62,44,39,30,51,35,26,29.69,29.56,42,1,47,0.00
2013-4-16,72,64,56,34,27,16,41,26,17,29.90,29.63,0,0,0,0.00
2013-4-17,79,65,53,28,19,12,36,18,10,30.10,29.89,11,1,17,0.00
2013-4-18,83,69,58,24,17,11,19,14,10,30.24,30.06,9,2,14,0.00
2013-4-19,94,77,64,38,22,8,15,13,11,30.16,29.87,10,1,14,0.00
2013-4-20,100,80,62,38,26,10,24,14,11,29.93,29.75,11,2,14,0.00
2013-4-21,98,83,66,38,32,21,34,17,11,29.92,29.76,21,4,29,0.00
2013-4-22,94,81,69,45,35,22,40,20,11,29.85,29.63,40,16,52,0.00
2013-4-23,96,77,63,47,37,21,55,28,11,29.87,29.66,42,16,52,0.15
2013-4-24,98,78,63,54,42,22,59,34,11,29.83,29.67,44,18,53,0.00
2013-4-25,79,69,62,48,46,44,57,44,33,29.95,29.74,45,28,54,0.00
2013-4-26,98,78,63,50,42,28,53,32,11,30.06,29.91,31,10,39,0.00
2013-4-27,107,88,71,48,39,21,39,20,11,30.02,29.79,30,10,38,0.00
2013-4-28,109,90,77,51,37,26,26,16,11,29.85,29.62,34,17,41,0.00
2013-4-29,105,89,76,47,38,22,34,17,11,29.70,29.52,37,18,47,0.00
2013-4-30,93,81,68,54,40,21,58,27,11,29.65,29.53,45,24,59,0.00
2013-5-1,99,79,63,52,43,28,66,36,11,29.89,29.63,40,14,50,0.00
2013-5-2,98,91,83,38,33,28,15,13,11,30.20,30.00,10,2,15,0.00
2013-5-3,102,90,80,45,31,21,15,13,11,29.80,29.68,14,3,18,0.00
2013-5-4,96,82,68,47,31,21,47,17,11,29.71,29.51,42,17,48,0.00
2013-5-5,79,69,62,51,46,39,65,45,31,29.81,29.64,38,22,45,0.00
2013-5-6,78,66,60,55,49,42,66,53,38,29.93,29.79,34,15,42,0.00
2013-5-7,79,68,55,50,44,35,66,44,23,29.95,29.83,36,13,45,0.00
2013-5-8,88,70,62,52,46,39,57,44,23,29.99,29.87,36,20,42,0.00
2013-5-9,87,72,61,57,49,43,64,45,25,29.95,29.84,34,22,41,0.00
2013-5-10,104,82,63,55,48,34,71,37,11,29.99,29.82,32,13,38,0.00
2013-5-11,108,90,72,53,44,28,45,23,11,29.96,29.84,28,8,35,0.00
2013-5-12,110,92,72,52,38,28,28,16,11,29.99,29.78,14,3,21,0.15
2013-5-13,112,95,74,53,38,23,26,14,11,29.90,29.71,33,6,40,0.00
2013-5-14,110,92,78,52,34,21,15,13,11,29.79,29.65,41,18,52,0.00
2013-5-15,95,83,74,52,36,21,47,20,11,29.84,29.68,41,23,52,0.00
2013-5-16,104,80,70,55,48,28,56,35,11,29.77,29.61,45,20,60,0.15
2013-5-17,88,74,66,56,51,33,67,47,17,29.80,29.69,47,29,56,0.00
2013-5-18,91,77,66,55,51,44,59,43,24,29.88,29.73,45,26,56,0.00
2013-5-19,106,82,67,55,49,35,63,37,11,29.84,29.65,40,19,50,0.00
2013-5-20,105,88,71,54,42,21,54,24,11,29.89,29.72,28,6,34,0.00
2013-5-21,107,88,69,48,38,22,36,19,11,29.81,29.58,38,10,44,0.00
2013-5-22,94,82,66,52,36,21,58,22,11,29.88,29.52,40,23,48,0.15
2013-5-23,84,69,62,52,47,33,61,48,16,29.74,29.62,41,26,53,0.00
2013-5-24,90,76,63,52,42,26,64,36,11,29.84,29.71,36,21,44,0.00
2013-5-25,90,76,64,52,40,21,54,31,11,29.85,29.73,42,24,46,0.00
2013-5-26,90,76,63,52,45,29,65,38,12,29.88,29.74,45,25,56,0.00
2013-5-27,94,78,66,56,50,42,63,40,18,29.81,29.63,47,26,58,0.00
2013-5-28,87,75,67,57,55,49,66,50,34,29.67,29.53,47,31,59,0.00
2013-5-29,103,85,70,56,48,31,61,33,11,29.66,29.48,36,16,42,0.00
2013-5-30,102,86,74,62,53,35,52,35,11,29.73,29.59,34,12,42,0.00
2013-5-31,107,88,72,62,53,35,57,34,11,29.80,29.64,27,7,33,0.00
2013-6-1,115,94,73,59,49,35,51,26,11,29.73,29.55,27,5,34,0.00
2013-6-2,106,92,79,58,48,28,43,25,11,29.63,29.49,39,17,47,0.00
2013-6-3,104,86,74,58,46,35,54,28,11,29.69,29.55,36,20,46,0.00
2013-6-4,99,83,68,56,48,28,65,35,11,29.74,29.64,40,23,47,0.00
2013-6-5,102,86,72,56,46,33,54,30,11,29.78,29.64,40,22,49,0.00
2013-6-6,82,81,80,53,50,48,38,35,32,29.70,29.68,34,24,40,0.00
2013-6-7,87,84,81,59,58,57,44,41,36,29.60,29.58,34,28,46,0.00
2013-6-8,108,90,76,62,55,42,55,34,12,29.72,29.57,33,10,40,0.00
2013-6-9,106,88,74,63,50,28,61,32,11,29.77,29.64,27,9,34,0.00
2013-6-10,100,86,73,49,38,21,43,21,11,29.75,29.65,40,11,50,0.00
2013-6-11,115,99,83,59,48,36,43,21,11,29.75,29.65,27,11,32,0.00
2013-6-12,106,90,81,58,50,30,43,27,11,29.79,29.68,39,18,50,0.00
2013-6-13,108,90,76,55,46,28,47,25,11,29.82,29.64,40,17,51,0.00
2013-6-14,109,89,78,54,43,21,43,22,11,29.76,29.58,35,15,46,0.00
2013-6-15,107,88,76,52,42,22,41,22,11,29.75,29.65,36,18,43,0.00
2013-6-16,103,87,73,54,44,28,48,26,11,29.84,29.69,36,22,49,0.00
2013-6-17,106,91,79,53,45,32,35,23,11,29.79,29.65,35,18,45,0.00
2013-6-18,104,90,80,53,43,28,35,21,11,29.71,29.55,40,21,49,0.00
2013-6-19,101,86,75,54,43,30,39,23,11,29.67,29.55,40,24,50,0.00
2013-6-20,108,88,77,52,44,29,41,24,11,29.68,29.58,43,19,49,0.00
2013-6-21,101,88,76,46,39,28,29,19,11,29.73,29.59,39,20,47,0.00
2013-6-22,102,87,76,55,45,33,40,25,11,29.72,29.57,45,24,52,0.00
2013-6-23,99,84,73,56,48,35,55,32,12,29.66,29.53,45,24,53,0.00
2013-6-24,92,78,66,58,55,48,70,47,24,29.74,29.59,46,28,52,0.00
2013-6-25,100,85,71,61,58,54,65,42,24,29.82,29.67,36,22,49,0.00
2013-6-26,106,93,80,65,58,43,52,33,12,29.86,29.73,27,7,34,0.00
2013-6-27,114,96,83,62,54,42,47,27,11,29.90,29.74,31,8,36,0.00
2013-6-28,115,101,89,56,49,35,30,19,11,29.81,29.61,38,23,47,0.00
2013-6-29,120,104,90,67,50,35,38,18,11,29.68,29.51,34,14,40,0.00
2013-6-30,115,98,79,65,54,42,42,25,11,29.70,29.51,24,5,30,0.00
2013-7-1,114,99,86,69,56,41,58,28,11,29.77,29.60,32,12,42,0.00
2013-7-2,109,98,90,72,52,35,46,23,11,29.88,29.63,34,12,46,0.00
2013-7-3,112,99,92,54,42,35,27,15,11,29.72,29.52,42,23,50,0.00
2013-7-4,115,98,88,69,50,35,45,22,11,29.69,29.48,40,14,54,0.00
2013-7-5,106,92,81,71,59,44,61,34,15,29.70,29.55,24,6,30,0.00
2013-7-6,114,93,80,64,55,37,50,31,11,29.68,29.51,34,10,40,0.00
2013-7-7,113,98,86,62,49,35,45,22,11,29.66,29.53,36,16,40,0.00
2013-7-8,119,101,87,54,46,35,29,16,11,29.77,29.64,32,14,40,0.00
2013-7-9,112,97,85,77,61,36,73,36,11,29.96,29.72,25,5,30,0.00
2013-7-10,103,91,82,78,68,36,82,51,13,29.90,29.71,30,7,34,0.00
2013-7-11,99,86,81,71,62,53,63,45,32,29.89,29.73,26,10,31,0.00
2013-7-12,109,92,80,65,61,42,58,38,11,29.80,29.62,30,13,36,0.00
2013-7-13,113,96,84,61,49,28,46,23,11,29.80,29.63,30,14,37,0.00
2013-7-14,117,98,85,56,49,35,37,22,11,29.78,29.60,29,14,37,0.00
2013-7-15,109,97,86,54,43,35,28,17,11,29.69,29.55,40,19,49,0.00
2013-7-16,104,94,84,46,37,28,25,14,11,29.80,29.64,35,17,45,0.00
2013-7-17,105,92,78,46,36,22,25,14,11,29.89,29.74,34,10,37,0.00
2013-7-18,117,96,85,52,39,28,25,14,11,29.81,29.63,33,18,37,0.00
2013-7-19,107,93,82,76,61,28,57,36,11,29.82,29.61,30,6,38,0.00
2013-7-20,105,89,82,78,72,57,85,60,37,29.82,29.62,11,2,14,0.00
2013-7-21,97,84,75,78,72,64,97,69,54,29.84,29.69,18,4,24,0.36
2013-7-22,101,87,77,75,68,63,79,55,37,29.87,29.73,29,7,34,0.00
2013-7-23,106,91,80,70,62,55,57,41,24,29.86,29.68,34,18,43,0.00
2013-7-24,109,94,82,65,57,42,49,33,11,29.79,29.62,38,21,47,0.00
2013-7-25,110,95,86,70,61,44,45,33,22,29.87,29.71,35,10,44,0.00
2013-7-26,106,90,80,77,64,56,86,44,32,29.96,29.80,24,6,30,0.19
2013-7-27,112,95,85,67,58,42,47,32,11,29.85,29.63,37,16,42,0.00
2013-7-28,105,93,84,58,44,28,37,20,11,29.70,29.59,39,25,47,0.00
2013-7-29,104,92,82,56,40,28,39,18,11,29.83,29.68,36,19,43,0.00
2013-7-30,108,90,78,58,51,36,44,30,11,29.94,29.79,33,16,38,0.00
2013-7-31,111,90,76,61,50,35,51,30,11,29.90,29.73,34,16,40,0.00
2013-8-1,103,88,73,57,44,28,52,26,11,29.89,29.65,36,19,44,0.70
2013-8-2,111,89,77,54,47,28,43,26,11,29.78,29.66,39,18,49,0.00
2013-8-3,113,91,80,57,47,28,42,25,11,29.82,29.70,34,16,39,0.00
2013-8-4,113,92,80,56,47,35,44,24,11,29.83,29.68,35,16,42,0.00
2013-8-5,109,93,82,48,37,22,26,15,11,29.82,29.69,31,14,38,0.00
2013-8-6,111,91,79,52,39,28,32,18,11,29.86,29.72,34,12,40,0.00
2013-8-7,105,90,80,46,35,21,27,15,11,29.87,29.72,35,17,47,0.00
2013-8-8,102,90,78,45,34,22,28,14,11,29.80,29.67,34,17,44,0.00
2013-8-9,102,88,79,45,32,21,25,14,11,29.77,29.68,34,19,40,0.00
2013-8-10,101,86,74,52,40,23,41,22,11,29.83,29.72,34,21,41,0.00
2013-8-11,110,89,76,55,46,28,42,26,11,29.84,29.68,34,15,40,0.00
2013-8-12,113,93,79,55,47,35,40,23,11,29.79,29.67,29,16,37,0.00
2013-8-13,111,92,80,58,48,29,41,24,11,29.85,29.69,30,9,34,0.00
2013-8-14,111,94,75,62,46,28,38,21,11,29.84,29.65,17,3,21,0.00
2013-8-15,111,96,84,60,43,29,32,17,11,29.83,29.67,28,7,35,0.00
2013-8-16,113,98,88,54,44,28,26,17,11,29.79,29.65,34,16,40,0.00
2013-8-17,118,98,85,60,49,40,36,20,11,29.81,29.59,29,12,37,0.00
2013-8-18,112,96,83,64,53,42,40,25,11,29.78,29.62,25,7,31,0.00
2013-8-19,109,96,86,64,55,43,39,27,12,29.81,29.66,23,5,30,0.00
2013-8-20,114,96,84,62,48,35,39,22,11,29.76,29.61,32,12,40,0.00
2013-8-21,115,98,82,53,41,28,33,15,11,29.79,29.64,30,7,34,0.00
2013-8-22,113,98,87,70,49,29,48,22,11,29.81,29.62,19,4,24,0.00
2013-8-23,108,94,82,70,55,29,45,28,11,29.77,29.60,19,4,24,0.00
2013-8-24,99,86,77,77,59,26,84,46,11,29.84,29.67,15,4,21,0.07
2013-8-25,100,81,73,74,70,65,91,70,41,29.91,29.80,11,2,20,0.00
2013-8-26,88,80,76,79,73,69,98,80,57,29.94,29.78,8,1,9,0.05
2013-8-27,108,89,73,74,68,61,95,55,27,29.81,29.62,20,3,23,0.00
2013-8-28,114,96,82,68,60,42,47,32,11,29.78,29.62,21,6,30,0.00
2013-8-29,107,90,82,77,74,59,80,61,35,29.95,29.78,13,2,22,0.00
2013-8-30,108,88,81,80,74,69,91,66,38,29.96,29.82,21,3,23,0.00
2013-8-31,106,92,85,74,70,66,66,49,34,29.86,29.70,28,9,36,0.00
2013-9-1,115,94,84,69,64,42,60,40,11,29.81,29.65,31,13,39,0.00
2013-9-2,117,94,83,69,60,42,55,36,11,29.78,29.65,28,11,34,0.00
2013-9-3,110,92,85,70,63,43,57,40,12,29.79,29.69,17,4,22,0.03
2013-9-4,107,91,83,71,64,44,54,41,14,29.86,29.74,21,4,30,0.00
2013-9-5,116,94,80,64,58,42,52,33,11,29.81,29.69,30,4,36,0.00
2013-9-6,115,94,87,63,55,42,39,28,11,29.79,29.67,18,4,28,0.00
2013-9-7,104,88,78,73,68,57,73,52,34,29.86,29.75,11,1,14,0.00
2013-9-8,110,91,75,69,61,42,77,42,11,29.78,29.61,19,2,24,0.00
2013-9-9,108,90,78,69,53,35,62,32,11,29.73,29.53,30,7,38,0.03
2013-9-10,105,86,74,74,57,36,94,44,14,29.79,29.66,26,6,35,0.88
2013-9-11,105,89,75,56,44,33,41,23,11,29.85,29.72,24,6,30,0.00
2013-9-12,112,92,78,53,42,28,37,19,11,29.82,29.64,18,5,24,0.00
2013-9-13,130,95,83,53,38,28,28,14,11,29.82,29.50,20,7,26,0.88
2013-9-14,114,96,82,53,43,28,27,17,11,29.61,29.47,14,3,18,0.00
2013-9-15,111,96,83,52,43,29,29,17,11,29.65,29.54,19,5,26,0.88
2013-9-16,117,97,81,53,42,28,25,16,11,29.69,29.54,27,6,34,0.00
2013-9-17,104,93,85,46,35,28,23,13,11,29.64,29.54,29,13,36,0.00
2013-9-18,77,77,76,56,55,55,49,48,47,29.63,29.62,25,20,31,0.00
2013-9-19,109,88,73,60,49,28,54,31,11,29.69,29.57,25,8,33,0.00
2013-9-20,110,85,73,61,52,35,63,38,11,29.70,29.61,30,13,36,0.00
2013-9-21,99,80,69,57,47,28,62,35,11,29.73,29.56,41,18,51,0.00
2013-9-22,89,77,67,52,46,32,57,37,15,29.73,29.60,41,16,49,0.00
2013-9-24,102,93,82,46,34,22,15,13,11,29.82,29.66,30,8,36,0.00
2013-9-25,97,80,66,53,31,21,61,20,11,29.69,29.48,40,14,49,0.00
2013-9-26,82,72,64,51,39,21,58,35,11,29.80,29.55,40,21,46,0.00
2013-9-27,96,75,60,42,29,8,43,21,11,29.97,29.79,23,3,31,0.00
2013-9-28,99,76,57,38,23,8,38,14,11,30.03,29.88,8,1,13,0.00
2013-9-29,100,80,61,38,26,12,18,14,11,30.02,29.83,11,2,14,0.00
2013-9-30,100,82,62,38,29,14,31,15,11,29.89,29.71,13,2,17,0.00
2013-10-1,97,81,62,46,35,17,42,21,11,29.88,29.71,19,4,25,0.81
2013-10-2,97,80,64,58,44,22,53,31,11,29.84,29.67,33,7,58,0.88
2013-10-3,85,74,67,58,51,42,64,46,24,29.80,29.63,40,22,52,0.00
2013-10-4,90,76,67,56,23,14,65,15,11,30.12,29.80,16,3,24,0.00
2013-10-5,93,77,65,38,22,14,15,13,11,30.21,30.04,13,3,24,0.00
2013-10-6,98,78,62,38,24,7,15,13,11,30.11,29.90,7,1,11,0.00
2013-10-7,98,77,58,38,22,7,15,13,11,29.96,29.75,23,3,27,0.00
2013-10-8,93,78,66,52,31,14,58,22,11,29.79,29.62,42,15,52,0.00
2013-10-9,78,63,53,51,46,32,84,56,31,29.73,29.59,39,14,49,0.06
2013-10-10,78,63,53,50,43,34,77,50,24,29.95,29.73,21,8,28,0.00
2013-10-11,88,73,58,48,40,21,69,35,11,30.00,29.84,16,3,21,0.94
2013-10-12,93,74,57,52,39,21,61,33,11,29.91,29.76,21,3,28,0.00
2013-10-13,89,73,64,51,41,21,61,35,11,29.94,29.76,30,11,40,0.00
2013-10-14,94,75,61,51,28,14,63,22,11,30.01,29.86,17,3,22,0.00
2013-10-15,95,75,58,38,24,12,29,16,11,30.00,29.83,14,1,17,0.00
2013-10-16,92,72,54,38,22,9,36,16,11,30.10,29.92,11,1,14,0.00
2013-10-17,96,73,54,38,24,10,27,16,11,30.02,29.81,14,2,19,0.00
2013-10-18,101,77,60,38,27,14,31,17,11,29.96,29.84,10,2,14,0.00
2013-10-19,99,78,57,38,24,7,27,14,11,30.00,29.84,12,1,15,0.00
2013-10-20,100,80,63,38,28,13,29,16,11,29.91,29.73,22,5,26,0.00
2013-10-21,94,77,62,38,25,11,25,15,11,29.93,29.81,20,4,25,0.00
2013-10-22,98,75,55,38,26,14,44,17,11,29.97,29.80,9,1,13,0.00
2013-10-23,104,77,62,56,34,14,68,24,11,29.86,29.71,23,5,30,0.00
2013-10-24,88,72,60,54,50,32,78,49,17,29.92,29.78,29,14,34,0.00
2013-10-25,97,76,66,52,38,21,60,30,11,30.00,29.89,21,5,26,0.00
2013-10-26,100,79,63,38,27,14,27,15,11,30.02,29.88,9,2,12,0.00
2013-10-27,103,78,61,49,31,18,56,20,11,29.92,29.60,32,6,49,0.00
2013-10-28,82,68,59,49,40,18,63,39,13,29.82,29.59,30,7,46,0.00
2013-10-29,79,63,53,46,40,19,70,46,14,29.92,29.81,28,8,34,0.00
2013-10-30,86,65,53,47,34,15,71,37,11,30.04,29.91,26,5,34,0.00
2013-10-31,86,64,49,35,28,14,54,30,11,30.10,29.96,8,1,11,0.00
2013-11-1,92,67,50,38,29,14,50,27,11,30.13,29.94,9,1,14,0.00
2013-11-2,92,70,51,37,26,14,47,22,11,30.02,29.75,11,1,17,0.00
2013-11-3,85,71,61,52,33,15,67,29,11,29.80,29.66,30,12,36,0.00
2013-11-4,73,65,58,51,47,33,70,53,28,29.89,29.66,35,18,44,0.00
2013-11-5,79,65,55,48,19,5,70,20,11,30.19,29.88,11,2,22,0.00
2013-11-6,90,65,48,31,15,4,18,14,11,30.27,30.13,7,0,8,0.00
2013-11-7,90,66,49,31,17,6,24,15,11,30.18,29.98,8,0,11,0.00
2013-11-8,94,68,52,38,17,6,18,14,11,30.02,29.86,7,1,11,0.00
2013-11-9,90,66,51,31,18,7,24,16,11,30.06,29.87,6,1,10,0.00
2013-11-10,97,68,54,38,17,7,24,15,11,30.09,29.92,7,0,9,0.94
2013-11-11,97,73,52,38,24,11,37,17,11,30.07,29.93,8,1,10,0.00
2013-11-12,99,74,58,43,24,14,27,16,11,30.12,30.00,7,1,10,0.00
2013-11-13,97,74,57,38,24,13,27,16,11,30.04,29.88,7,1,9,0.00
2013-11-14,96,72,56,38,23,12,27,17,11,29.95,29.69,8,1,12,0.00
2013-11-15,79,66,59,50,40,20,60,39,19,29.69,29.52,36,14,45,0.00
2013-11-16,71,64,60,50,45,40,64,51,41,29.85,29.62,34,18,41,0.00
2013-11-17,79,63,51,48,44,38,74,53,26,30.07,29.84,24,5,29,0.94
2013-11-18,85,66,51,52,45,37,73,50,21,30.10,29.94,30,5,35,0.00
2013-11-19,70,64,61,52,48,46,70,56,45,29.97,29.82,35,20,45,0.00
2013-11-20,70,65,61,53,49,46,72,58,45,29.85,29.75,36,21,47,0.00
2013-11-21,74,63,57,56,52,48,84,67,52,29.86,29.76,26,5,32,0.00
2013-11-22,66,57,53,50,44,35,82,65,37,29.94,29.82,11,2,17,0.04
2013-11-23,53,53,53,47,47,47,81,81,81,29.94,29.94,2,2,3,0.00
2013-11-30,58,57,56,34,33,32,41,40,38,30.16,30.15,4,2,7,0.00
2013-12-1,90,64,50,35,25,8,52,26,11,30.23,30.07,8,1,10,0.00
2013-12-2,83,60,49,35,21,10,45,24,11,30.13,29.80,6,1,9,0.00
2013-12-3,80,62,51,48,37,21,62,41,15,29.81,29.57,34,5,46,0.00
2013-12-4,67,57,47,48,20,5,64,28,11,29.96,29.59,33,6,45,0.00
2013-12-5,67,52,47,30,17,7,47,26,12,30.03,29.95,8,1,11,0.00
2013-12-6,65,52,49,32,28,17,52,41,19,30.17,30.01,8,1,12,0.00
2013-12-7,69,53,49,41,33,20,64,47,24,30.09,29.83,31,3,40,0.00
2013-12-8,65,52,48,35,20,6,54,30,17,30.21,29.97,21,4,107,25.70
2013-12-9,65,51,48,16,7,4,19,17,11,30.42,30.21,10,3,19,0.00
2013-12-10,48,48,48,6,6,6,18,18,18,30.39,30.39,2,2,4,0.00